[ ตารางข้อมูล ] [ Min-Max ] [ วันนี้4 ] [ วันนี้2 ] [ เทียบ3วัน A ] [ เทียบ4วัน B ]   

วันนี้2   [ ◀ ช่วงเก่ากว่า ] [ ช่วงที่ 229 ] [ ช่วงใหม่กว่า ▶ ] [ ล่าสุด ]    [ 3 ชั่วโมง ] [ 6 ชั่วโมง ] [ 12 ชั่วโมง ] [ 24 ชั่วโมง ]   วันนี้2

อุณภูมิตู้ Knockdown4529  ราย 6 ชั่วโมง  ที่วัดได้ ในช่วงวันเวลา 09/03/2026 (23:17) ถึง 10/03/2026 (05:17) 
ความชื้นในตู้ Knockdown4529  ราย 6 ชั่วโมง  ที่วัดได้ ในช่วงวันเวลา 09/03/2026 (23:17) ถึง 10/03/2026 (05:17) 

 
DS18B20SHTC3 
IDDate d/m/Y & Timedata1
สูง
data2
ต่ำ
data3
นอก
temp
pcb
hum
pcb
Time
 1071  10/03/2026 05:16:33  26.5  26.6  25.3  26.4  71.8  05:16 
 1070  10/03/2026 05:11:48  26.5  26.7  25.3  26.5  71.9  05:11 
 1069  10/03/2026 05:07:06  26.5  26.7  25.3  26.4  71.9  05:07 
 1068  10/03/2026 05:02:24  26.5  26.7  25.4  26.5  71.8  05:02 
 1067  10/03/2026 04:57:42  26.5  26.8  25.4  26.6  71.9  04:57 
 1066  10/03/2026 04:53:01  26.6  26.8  25.5  26.5  71.9  04:53 
 1065  10/03/2026 04:48:18  26.6  26.8  25.7  26.6  71.8  04:48 
 1064  10/03/2026 04:43:37  26.6  26.8  25.6  26.6  71.9  04:43 
 1063  10/03/2026 04:38:55  26.6  26.8  25.6  26.7  71.8  04:38 
 1062  10/03/2026 04:34:14  26.6  26.9  25.8  26.9  72.0  04:34 
 1061  10/03/2026 04:29:32  26.7  26.9  25.6  26.8  71.9  04:29 
 1060  10/03/2026 04:24:50  26.7  26.9  25.6  26.6  71.9  04:24 
 1059  10/03/2026 04:20:08  26.7  26.9  25.7  26.9  71.8  04:20 
 1058  10/03/2026 04:15:26  26.8  26.9  25.7  26.8  71.9  04:15 
 1057  10/03/2026 04:10:45  26.8  27.0  25.9  26.7  71.7  04:10 
 1056  10/03/2026 04:06:03  26.8  27.0  25.9  27.1  71.9  04:06 
 1055  10/03/2026 04:01:22  26.8  27.0  25.9  26.9  71.8  04:01 
 1054  10/03/2026 03:56:39  26.9  27.1  25.8  27.0  71.9  03:56 
 1053  10/03/2026 03:51:57  26.9  27.1  25.9  27.0  71.8  03:51 
 1052  10/03/2026 03:47:15  26.9  27.1  25.9  27.0  71.8  03:47 
 1051  10/03/2026 03:42:34  26.9  27.1  26.1  27.1  71.8  03:42 
 1050  10/03/2026 03:37:52  26.9  27.1  26.2  26.9  71.7  03:37 
 1049  10/03/2026 03:33:10  27.0  27.1  26.1  27.0  71.8  03:33 
 1048  10/03/2026 03:28:29  27.0  27.2  26.1  26.9  71.7  03:28 

Data every 5 minute.


ใช้เวลาประมวลผล 0.00545 วินาที